SSA

导读 | 豆包AI

SSA卫星是美国于1983年2月9日发射的太空态势感知卫星,美国在该领域长期占据技术领先地位。这类卫星主要用于监测太空目标、跟踪轨道碎片、感知空间态势,帮助掌握航天器运行状态,提升太空活动安全性,为太空交通管理、航天器防撞预警等任务提供关键数据支撑,推动了人类对近地空间环境的监测与探索能力。

基本信息
目录编号:
13844
目录名称:
SSA
国际标识:
1983-008E
轨道中心:
EARTH
卫星名称:
SSA
卫星全名:
--
卫星状态:
在轨 (已飞行15786 天)
发射日期:
1983-02-09 UTC
国别 :
美国 (US)
星等 :
--
轨道信息
数据来源 国际轨道数据 AOE轨道数据
星历时间 2026-04-30T13:06:06+0800
10小时前
查看轨道信息
2026-04-27T10:00:00+0800
3天前
查看轨道信息
半长轴 7350.744km 7350.781km
偏心率 0.071643 0.0716582
轨道倾角 63.309° 63.310°
近地点辐角 134.094° 134.035°
升交点赤经 160.214° 168.819°
平近点角 232.141° 193.815°
近地点 445.977km 445.9km
远地点 1499.237km 1499.388km
周期 104.534分钟 104.535分钟
每日圈数 13.775451 13.775349
详细信息
使用方式:
暂无
2D轨道图
3D轨道图
轨道高度分析图
轨道倾角分析图
轨道综合分析图
查看轨道综合分析图